Weather History for PHBK - January, 2013

Change the Weather History Date:

Saturday, January 19, 2013

  Actual Average Record
Temperature  
Mean Temperature 74 °F -  
Max Temperature 80 °F 80 °F 84 °F (1951)
Min Temperature 69 °F 61 °F 57 °F (1970)
Cooling Degree Days 10    
Growing Degree Days 24 (Base 50)    
Moisture  
Dew Point 53 °F    
Average Humidity 49    
Maximum Humidity 59    
Minimum Humidity 37    
Precipitation  
Precipitation 0.00 in - - ()
Sea Level Pressure  
Sea Level Pressure 30.01 in    
Wind  
Wind Speed 16 mph (NNE)    
Max Wind Speed 23 mph    
Max Gust Speed 30 mph    
Visibility 10 miles    
Events      
Averages and records for this station are not official NWS values.
T = Trace of Precipitation, MM = Missing Value Source: NWS Daily Summary

Daily Weather History Graph

Daily Weather History Graph

Search for Another Location

Airport or City:

Trip Planner

Search our weather history database for the weather conditions in past years. The results will help you decide how hot, cold, wet, or windy it might be!

Date:

Astronomy

Jan. 19, 2013 Rise Set
Actual Time 7:20 AM HST 6:19 PM HST
Civil Twilight 6:56 AM HST 6:43 PM HST
Nautical Twilight 6:29 AM HST 7:11 PM HST
Astronomical Twilight 6:02 AM HST 7:37 PM HST
Moon 12:46 PM HST (1/19) 1:15 AM HST (1/19)
Length of Visible Light 11h 47m
Length of Day
10h 59m
First Quarter, 59% of the Moon is Illuminated
Jan 19
First Quarter
Jan 26
Full
Feb 3
Last Quarter
Feb 9
New
Feb 17
First Quarter

Hourly Weather History & Observations

Time (HST) Temp. Heat Index Dew Point Humidity Pressure Visibility Wind Dir Wind Speed Gust Speed Precip Events Conditions
12:56 AM 71.1 °F - 53.1 °F 53% 29.98 in 10.0 mi North 17.3 mph - N/A   Clear
1:56 AM 70.0 °F - 50.0 °F 49% 29.98 in 10.0 mi North 12.7 mph - N/A   Clear
2:56 AM 70.0 °F - 50.0 °F 49% 29.97 in 10.0 mi NNE 13.8 mph 19.6 mph N/A   Clear
3:56 AM 70.0 °F - 50.0 °F 49% 29.97 in 10.0 mi North 19.6 mph 25.3 mph N/A   Clear
4:56 AM 71.1 °F - 51.1 °F 49% 29.97 in 10.0 mi North 19.6 mph 27.6 mph N/A   Scattered Clouds
5:56 AM 71.1 °F - 51.1 °F 49% 29.98 in 10.0 mi North 13.8 mph - N/A   Scattered Clouds
6:56 AM 69.1 °F - 50.0 °F 51% 29.99 in 10.0 mi NNE 9.2 mph - N/A   Partly Cloudy
7:56 AM 71.1 °F - 53.1 °F 53% 30.01 in 10.0 mi NNE 8.1 mph - N/A   Partly Cloudy
8:56 AM 75.0 °F - 53.1 °F 46% 30.02 in 10.0 mi North 15.0 mph - N/A   Scattered Clouds
9:56 AM 75.0 °F - 52.0 °F 44% 30.03 in 10.0 mi North 19.6 mph - N/A   Partly Cloudy
10:56 AM 77.0 °F - 50.0 °F 39% 30.04 in 10.0 mi North 17.3 mph 25.3 mph N/A   Clear
11:56 AM 78.1 °F - 52.0 °F 40% 30.01 in 10.0 mi North 17.3 mph 25.3 mph N/A   Clear
12:56 PM 80.1 °F 80.1 °F 55.0 °F 42% 29.98 in 10.0 mi North 23.0 mph 27.6 mph N/A   Partly Cloudy
1:56 PM 78.1 °F - 53.1 °F 42% 29.97 in 10.0 mi North 23.0 mph 29.9 mph N/A   Scattered Clouds
2:56 PM 78.1 °F - 50.0 °F 37% 29.96 in 10.0 mi NNE 21.9 mph 28.8 mph N/A   Clear
3:56 PM 77.0 °F - 53.1 °F 43% 29.97 in 10.0 mi NNE 19.6 mph 28.8 mph N/A   Clear
4:56 PM 75.0 °F - 57.0 °F 53% 29.99 in 10.0 mi North 17.3 mph - N/A   Scattered Clouds
5:56 PM 73.0 °F - 55.0 °F 53% 30.01 in 10.0 mi NNE 13.8 mph - N/A   Mostly Cloudy
6:56 PM 71.1 °F - 53.1 °F 53% 30.02 in 10.0 mi NNE 8.1 mph - N/A   Clear
7:56 PM 71.1 °F - 55.9 °F 59% 30.04 in 10.0 mi NNE 12.7 mph - N/A   Mostly Cloudy
8:56 PM 71.1 °F - 53.1 °F 53% 30.06 in 10.0 mi NNE 17.3 mph - N/A   Clear
9:56 PM 71.1 °F - 55.0 °F 57% 30.07 in 10.0 mi NNE 19.6 mph 23.0 mph N/A   Scattered Clouds
10:56 PM 71.1 °F - 54.0 °F 55% 30.06 in 10.0 mi NNE 13.8 mph - N/A   Mostly Cloudy
11:56 PM 69.1 °F - 52.0 °F 54% 30.05 in 10.0 mi NE 6.9 mph - N/A   Clear